Vorticity
6 6 6 6 6 5 5 5 5 5 5 6 6 6 6 6 6 6 5 5 5 5 5 5 5 5 5 5 5 5 5 5 5 5 5 5 5 5 5 5 5 5 5 5 5 5 5 5 5 6 6 6 6 6 6 6 6 6 6 5 5 5 5 5 5 5 5 5 5 5 5 5 5 5 5 5 5 5 5 5 5 5 5 5 5 5 5 6 6 6 7 7 7 6 6 6 6 6 6 6 6 6 6
6 6 6 5 5 5 5 5 5 5 5 5 5 5 5 5 5 5 5 5 5 5 5 5 5 5 5 5 5 5 5 5 5 5 5 5 5 5 5 5 5 5 5 5 5 5 5 5 6 6 6 6 6 6 6 6 6 6 5 5 5 5 5 5 5 5 5 5 5 5 5 5 5 5 5 5 5 5 5 5 5 5 5 5 5 5 6 6 6 7 7 7 7 6 6 6 6 6 6 6 6 6 6
5 5 5 5 5 5 5 5 5 5 5 5 5 5 5 5 5 5 5 5 5 5 5 5 5 5 5 5 5 5 5 5 5 5 5 5 5 5 5 5 5 5 5 5 5 5 5 5 6 6 6 6 6 6 6 6 5 5 5 5 5 5 5 5 5 5 5 5 5 5 4 4 4 4 4 4 4 4 5 5 5 5 5 5 5 6 6 6 7 7 7 7 7 6 6 6 6 6 6 5 5 6 5
5 5 5 5 5 4 4 4 5 5 5 5 5 5 5 5 5 5 5 5 5 5 5 5 5 5 5 5 5 5 5 5 5 5 5 5 5 5 5 5 5 5 5 5 5 5 5 6 6 6 6 6 6 6 6 6 5 5 5 5 5 5 5 5 5 5 5 5 4 4 4 4 4 4 4 4 4 4 4 5 5 5 5 5 6 6 6 6 7 7 7 7 7 6 6 6 6 6 6 6 5 5 5
5 5 5 4 4 4 4 4 4 5 5 5 5 5 5 5 5 5 5 5 5 5 5 5 5 5 5 5 5 5 5 5 5 5 5 5 5 5 5 5 5 5 5 5 5 5 6 6 6 6 6 6 6 6 5 5 5 5 5 5 5 5 5 5 4 4 4 4 4 4 4 4 4 4 4 4 5 5 5 5 5 5 5 5 6 6 6 6 7 7 7 7 6 6 6 6 6 6 6 6 5 5 5
5 4 4 4 4 4 4 4 4 5 5 5 5 5 5 5 5 5 5 5 5 5 5 5 5 5 5 5 5 5 5 5 5 5 5 5 5 5 5 5 5 5 5 5 6 6 6 6 6 6 6 6 6 5 5 5 5 5 5 4 4 4 4 4 4 4 4 4 4 5 5 5 5 5 5 5 5 5 5 5 5 5 5 6 6 6 6 7 7 7 7 6 6 6 6 6 6 6 6 6 5 5 5
4 4 4 4 4 4 4 5 5 5 5 5 5 5 5 5 5 5 5 5 5 5 5 5 5 5 5 5 5 5 5 5 5 5 5 5 5 5 5 5 5 5 5 6 6 6 6 6 6 6 6 5 5 5 5 5 5 5 4 4 4 4 4 4 4 4 4 5 5 5 5 5 5 5 5 5 5 5 5 5 5 5 6 6 6 6 6 7 7 7 6 6 6 6 6 6 6 6 6 6 6 6 5
4 4 4 4 4 4 5 5 5 5 5 5 5 5 5 5 5 5 5 5 5 5 5 5 5 5 5 5 5 5 5 5 5 5 5 5 5 5 5 5 5 5 6 6 6 6 6 6 6 5 5 5 5 5 4 5 5 5 4 4 4 4 4 5 5 5 5 5 5 5 5 5 5 5 5 5 5 6 6 6 6 6 6 6 6 6 6 6 6 6 6 6 6 6 6 6 6 6 6 6 6 6 6
4 4 4 4 4 4 4 4 5 5 5 5 5 5 5 5 5 5 5 5 5 5 5 5 5 5 5 5 5 5 5 5 5 5 5 5 5 5 5 5 5 5 5 5 5 5 5 5 5 5 5 5 5 5 4 4 4 4 5 5 5 5 5 5 5 5 5 5 5 5 5 5 5 5 5 6 6 6 6 6 6 6 6 6 6 6 6 6 6 6 6 6 6 6 6 6 6 6 6 6 6 6 6
4 4 4 4 4 4 4 4 4 4 4 4 4 4 4 4 4 4 4 4 5 5 5 5 5 5 5 5 5 5 5 5 5 5 5 5 5 5 5 5 5 5 5 5 5 5 5 5 5 5 5 5 5 5 5 4 4 4 4 5 5 5 5 5 5 5 5 5 5 5 5 5 5 5 6 6 6 6 6 6 6 6 6 6 6 6 6 6 6 6 6 6 6 6 6 6 6 6 6 6 6 6 7
4 4 4 4 4 4 4 4 4 4 4 4 4 4 4 4 4 4 4 4 4 4 4 5 5 5 5 5 5 5 5 5 5 5 5 5 5 5 5 5 5 5 5 5 5 5 5 5 5 5 5 5 5 5 5 4 4 4 4 4 5 5 5 5 5 5 5 5 5 5 5 5 5 6 6 6 6 6 6 6 6 6 6 6 6 6 6 6 6 6 6 6 6 6 6 6 6 6 6 7 7 7 7
4 3 3 3 3 3 3 3 3 4 4 4 4 4 4 4 4 4 4 4 4 4 4 4 4 5 5 5 5 5 5 5 5 5 5 5 5 5 5 5 5 5 5 4 4 4 4 4 5 5 5 5 5 5 5 5 4 4 4 4 4 4 5 5 5 5 4 4 5 5 5 5 5 6 6 6 6 6 6 6 6 6 6 6 6 6 6 6 6 6 6 6 6 6 6 6 6 7 7 7 7 7 7
3 3 3 3 3 3 3 3 3 3 3 3 3 4 4 4 4 4 4 4 4 4 4 4 4 4 4 4 5 5 5 5 5 5 5 5 5 5 5 5 5 5 5 5 4 4 4 4 5 5 5 5 5 5 5 5 5 5 4 4 4 4 4 4 4 4 4 4 4 5 5 5 5 6 6 6 6 6 6 6 6 6 6 6 6 6 6 6 6 6 6 6 6 6 6 6 7 7 7 7 7 7 7
3 3 3 3 3 3 3 3 3 4 4 4 4 4 4 4 4 4 4 4 4 4 4 4 4 4 4 4 5 5 5 5 5 5 5 5 5 5 5 5 5 5 5 5 5 5 5 4 4 5 5 5 5 5 5 5 5 5 5 5 4 4 4 4 4 4 4 4 4 5 5 5 5 6 6 6 6 6 6 6 6 6 6 6 5 5 5 5 5 5 6 6 6 6 6 6 7 7 7 7 7 7 8
4 4 4 4 4 4 4 4 4 4 4 4 4 4 4 4 4 4 4 4 4 4 4 4 4 4 4 4 5 5 5 5 5 5 5 5 5 5 5 5 5 5 5 5 5 5 5 5 5 5 5 5 5 5 5 5 5 5 5 5 5 5 4 4 4 4 4 4 4 4 5 5 5 5 6 6 6 6 6 6 6 6 6 6 5 5 5 5 5 5 6 6 6 6 7 7 7 7 7 7 7 8 8
5 5 5 4 4 4 4 5 5 5 5 5 4 4 4 4 4 4 4 4 4 4 4 4 4 4 4 5 5 5 5 5 5 5 5 5 5 5 5 5 5 5 5 5 5 5 5 5 5 5 5 5 5 5 5 5 5 5 5 5 5 5 5 4 4 4 4 4 4 4 4 5 5 5 6 6 6 6 7 6 6 6 6 6 5 5 5 5 5 5 6 6 6 7 7 7 7 7 7 7 7 7 7
5 5 5 5 5 5 5 5 5 5 5 5 5 5 4 4 4 4 4 4 4 5 5 4 4 4 4 5 5 5 5 5 5 5 5 5 5 5 5 5 5 5 5 5 5 5 5 5 5 5 5 5 5 5 5 5 5 5 5 5 5 5 5 5 4 4 4 4 4 4 4 4 5 5 5 6 6 6 7 6 6 6 6 6 5 5 5 5 5 5 6 6 7 7 7 7 7 7 7 7 7 7 7
5 5 5 5 5 5 5 5 5 5 5 5 5 5 5 5 5 5 5 5 5 5 5 5 5 4 4 4 4 5 5 5 5 5 5 5 5 5 5 5 5 5 5 5 5 5 6 6 5 5 5 5 5 5 5 5 5 5 5 5 4 4 4 4 4 4 4 4 4 4 4 5 5 5 5 6 6 6 7 6 6 6 6 6 5 5 5 5 5 6 6 6 7 7 7 7 7 7 7 7 7 7 7
5 5 5 5 5 5 5 4 4 4 4 5 5 5 5 4 4 4 4 4 4 5 5 5 5 4 4 4 4 4 4 4 5 5 5 5 5 5 5 5 5 5 5 5 5 5 6 6 5 5 5 5 5 5 5 5 5 5 5 4 4 4 4 4 4 4 4 4 5 5 5 5 5 5 6 6 6 6 6 6 6 6 6 5 5 5 5 5 6 6 6 6 7 7 7 7 8 8 7 7 7 7 7
4 4 4 4 4 4 4 4 4 4 4 4 4 4 4 4 4 4 4 4 4 4 4 4 4 4 4 4 4 4 4 4 4 5 5 5 5 5 5 5 5 5 6 6 5 6 6 6 5 5 5 5 5 5 5 5 5 5 4 4 4 4 4 4 4 4 4 4 4 5 5 5 5 6 6 6 6 6 6 6 6 5 5 5 5 5 5 6 6 6 6 7 7 7 7 7 8 8 8 7 7 7 7
4 4 4 4 4 4 4 4 4 4 4 4 4 4 4 4 4 4 4 4 3 3 3 3 4 4 4 4 4 4 3 4 4 4 4 4 5 5 5 5 5 6 6 6 6 6 6 6 5 5 5 5 5 5 5 5 5 4 4 4 4 4 4 4 4 4 4 4 4 4 5 5 5 5 6 6 6 6 6 6 5 5 5 5 5 5 5 6 6 6 6 7 7 7 7 7 7 7 7 7 7 7 6
4 4 4 4 4 4 4 4 4 4 4 4 4 4 4 4 4 4 4 4 4 3 3 3 3 3 4 4 4 4 4 4 4 4 4 4 4 4 5 5 5 6 6 6 6 6 6 6 5 5 5 5 5 5 5 5 5 4 4 4 4 4 4 4 4 4 4 4 4 4 4 5 5 5 6 6 6 7 6 6 5 5 5 5 5 5 5 6 6 6 7 7 7 7 7 7 7 7 7 7 7 7 6
4 4 3 4 4 4 4 4 4 4 4 4 4 4 4 4 4 4 4 4 4 4 3 3 3 3 3 4 4 4 4 4 4 4 4 4 4 4 4 5 5 5 6 6 6 6 6 6 6 5 5 5 5 5 5 5 4 4 4 4 4 4 4 4 4 4 4 4 4 4 4 5 5 5 6 6 7 7 7 6 6 5 5 5 4 5 5 5 6 6 7 7 7 8 8 8 8 7 7 7 7 6 6
4 3 3 3 3 4 4 4 4 4 4 4 4 4 4 4 4 4 4 4 4 4 4 4 4 4 4 4 4 4 4 4 4 5 4 4 4 4 4 5 5 5 6 6 6 6 6 6 6 6 5 5 5 5 5 4 4 4 4 4 4 4 4 4 4 4 4 4 4 4 4 5 5 5 6 6 7 7 7 7 6 6 5 5 5 5 5 5 6 6 7 7 8 8 8 8 8 8 7 7 6 6 5
4 4 3 3 3 4 4 4 4 4 4 4 4 4 4 4 4 4 4 4 4 4 4 4 4 4 4 4 4 4 4 4 4 4 4 4 4 4 4 5 5 5 5 6 6 6 6 6 6 6 6 5 5 5 5 4 4 4 4 4 4 4 4 4 4 4 4 4 4 4 4 5 5 5 6 6 7 7 7 7 6 6 6 5 5 5 5 5 5 6 7 7 8 8 8 8 8 8 7 7 6 5 5
4 4 4 3 3 3 3 3 4 4 4 4 4 4 4 4 4 3 4 4 4 4 4 4 4 4 4 4 4 4 4 4 4 4 4 4 4 4 4 5 5 5 5 6 6 6 6 6 6 6 6 5 5 5 5 4 4 4 4 4 4 4 4 4 4 4 4 4 4 4 4 5 5 5 6 6 6 7 6 6 6 6 6 5 5 5 5 5 5 6 6 7 8 8 9 9 8 8 7 6 6 5 5
4 4 4 3 3 3 3 3 3 3 4 4 4 4 4 4 4 4 4 4 4 4 4 4 4 4 4 4 4 4 4 4 4 4 4 4 4 4 4 5 5 5 5 5 6 6 6 6 6 6 6 6 5 5 4 4 4 4 4 4 4 4 4 4 4 4 4 4 4 4 4 4 5 5 6 6 6 6 6 6 6 6 6 6 5 5 5 5 5 5 6 7 7 8 9 9 8 8 7 6 6 5 5
4 4 4 4 4 3 3 3 3 3 3 3 3 4 4 4 4 4 4 4 4 4 4 4 4 4 4 4 4 4 4 4 4 4 4 4 4 4 4 4 5 5 5 5 5 6 6 6 6 6 6 6 5 5 4 4 4 4 4 4 4 4 4 4 4 4 4 4 4 4 4 4 4 5 5 6 6 6 6 6 6 6 6 6 6 6 6 6 6 6 6 7 7 8 8 8 8 8 7 6 6 5 5
4 4 4 4 4 4 4 4 3 3 3 3 3 3 4 4 4 4 4 4 4 4 4 4 4 4 4 4 4 4 4 4 4 4 4 4 4 4 4 4 5 5 5 5 5 6 6 6 6 6 6 6 5 5 4 4 4 4 4 4 4 5 5 4 4 4 4 4 4 4 4 4 4 4 5 5 6 6 6 6 6 6 6 6 6 7 7 7 7 7 7 8 8 8 8 8 7 7 7 6 6 5 5
4 4 4 4 4 4 4 4 4 4 3 3 3 3 4 4 4 4 4 4 4 4 4 4 4 4 4 4 4 4 4 4 4 4 4 4 4 4 4 4 5 5 5 5 6 6 6 6 6 6 6 5 5 5 4 4 4 4 4 4 4 5 4 4 4 4 4 4 4 4 3 3 4 4 5 5 6 6 6 6 6 6 6 6 7 7 7 8 8 8 8 8 8 8 7 7 7 7 7 6 6 6 5
3 3 4 4 4 4 4 4 4 4 4 3 3 3 4 4 4 4 4 4 4 4 4 4 4 4 4 3 3 4 4 3 4 4 4 4 4 4 4 5 5 5 5 5 5 6 6 6 5 5 5 5 4 4 4 4 4 4 4 4 4 4 4 4 4 4 4 4 3 3 3 3 4 4 5 6 7 7 7 7 7 7 7 7 7 7 8 8 8 8 8 8 8 7 7 7 7 7 7 7 6 6 6
3 3 3 3 3 3 4 4 3 3 3 3 3 4 4 4 4 4 4 4 4 4 4 4 4 4 4 4 4 4 4 4 4 4 4 4 4 4 5 5 5 5 5 5 5 6 6 5 5 5 4 4 4 4 4 4 4 4 4 4 4 4 4 4 4 4 4 3 3 3 3 3 4 5 6 7 7 8 8 8 8 7 7 7 7 7 8 8 8 8 8 8 8 8 8 7 7 7 7 7 6 6 6
4 4 3 3 3 3 3 3 3 3 3 4 4 4 4 4 4 4 4 4 5 5 5 5 4 4 4 4 4 4 4 4 4 4 4 4 4 4 4 5 5 5 5 5 5 5 5 5 5 4 4 4 3 4 4 4 4 4 4 4 4 4 4 4 4 4 4 3 3 3 3 4 4 5 6 7 7 8 8 8 7 7 7 7 7 7 7 8 8 8 8 8 8 8 8 8 8 7 7 7 6 6 6
4 4 4 4 4 3 4 4 4 4 4 4 4 4 4 4 4 4 4 4 4 4 4 5 5 5 4 4 4 4 4 4 4 4 4 4 4 4 4 5 5 5 5 5 5 5 5 5 5 4 4 3 3 4 4 4 4 4 4 4 4 4 4 4 4 4 3 3 3 3 3 4 5 6 6 7 7 7 7 7 7 7 7 7 7 7 7 8 8 8 8 8 8 8 8 8 8 8 7 7 6 6 6
3 4 4 4 4 4 4 4 4 4 4 4 4 4 4 4 4 4 4 4 4 4 4 4 4 5 5 4 4 4 4 4 4 4 4 4 4 4 4 4 5 5 5 5 5 5 5 5 4 4 3 3 4 4 4 5 5 4 4 4 4 4 4 3 3 3 4 3 4 4 4 5 5 6 6 7 7 7 7 6 6 6 7 7 7 7 7 7 8 8 8 8 8 8 8 8 8 8 8 7 6 6 5
3 3 3 4 4 4 4 4 4 4 4 4 4 4 4 4 4 4 4 4 4 4 4 4 4 4 5 5 5 5 5 4 4 4 4 4 4 4 4 4 4 5 5 5 5 5 5 5 4 4 4 4 4 4 5 5 5 5 4 4 4 4 4 3 3 3 4 4 4 4 4 5 5 6 6 6 6 6 6 6 6 6 7 7 7 7 7 7 7 7 7 7 7 8 8 8 9 9 9 8 7 6 6
3 3 3 3 4 4 4 4 4 4 4 4 4 4 4 4 4 4 4 4 4 4 4 4 4 4 4 5 5 5 5 5 5 5 5 4 4 4 4 4 4 4 4 5 5 5 5 5 5 4 4 4 4 5 5 5 5 4 4 4 4 4 3 3 4 4 4 4 4 4 5 5 5 5 6 6 6 6 6 6 7 7 7 7 7 7 7 7 7 7 7 7 7 7 8 8 9 9 9 9 8 7 7
3 3 3 3 3 4 4 4 4 4 4 4 4 4 4 4 4 4 4 4 4 4 4 4 4 4 5 5 5 5 5 5 5 5 5 5 4 4 4 3 3 3 4 4 4 5 5 5 5 5 5 5 5 5 5 5 5 4 4 4 3 3 3 4 4 4 4 5 5 5 5 5 5 5 5 6 6 6 6 7 7 7 8 8 8 8 7 7 7 7 7 7 7 7 8 8 9 9 10 10 9 8 8
2 2 2 2 3 3 3 3 4 4 4 4 4 4 4 4 4 4 4 4 4 5 5 5 5 5 5 5 5 5 5 6 6 5 5 5 4 4 3 3 3 3 3 4 4 4 5 5 5 5 5 5 5 5 5 5 4 4 4 3 3 3 3 4 4 5 5 5 5 5 5 4 4 5 5 6 6 7 7 8 8 8 8 8 8 8 8 7 7 7 7 7 7 8 8 8 9 9 9 10 10 9 9
2 2 2 2 2 2 2 3 3 3 3 3 3 3 3 4 4 4 4 4 4 5 5 5 5 5 5 5 5 5 5 6 5 5 5 4 4 3 3 3 3 3 3 3 4 4 5 5 5 5 5 5 5 5 5 4 4 4 3 3 3 3 3 4 5 5 6 6 5 5 5 4 4 5 5 6 7 8 8 8 8 9 9 9 8 8 8 7 7 7 7 7 8 8 8 9 9 9 9 9 9 9 9
3 2 2 2 2 2 2 2 2 2 3 3 3 3 3 3 4 4 4 4 4 4 5 5 5 6 6 6 5 5 5 5 5 4 4 3 3 3 3 3 3 4 4 4 4 4 5 5 5 5 5 5 5 4 4 4 4 3 3 3 3 3 3 4 4 5 5 5 5 5 5 5 5 6 6 7 8 8 9 9 9 9 9 9 8 8 7 7 7 7 7 7 8 8 9 9 9 9 9 9 9 9 9
3 3 2 2 2 1 1 1 1 2 2 2 2 3 3 3 4 4 4 5 5 5 5 5 5 5 5 5 5 5 5 5 4 4 3 3 3 3 3 4 5 5 5 5 5 5 5 5 5 5 5 5 5 5 5 4 4 3 3 3 3 3 3 4 4 5 5 5 5 5 5 5 6 6 7 8 8 9 9 9 9 9 9 8 8 8 7 7 7 7 7 7 8 9 9 9 10 10 10 9 9 9 8
3 3 2 2 2 1 1 1 1 2 2 2 3 3 3 4 4 4 5 5 5 5 5 4 4 4 4 4 4 4 4 4 3 3 3 2 3 3 4 5 5 5 5 5 5 5 5 5 5 5 5 5 5 5 5 4 4 3 3 3 3 3 4 4 4 4 4 4 4 4 5 6 6 7 8 8 8 9 9 9 9 9 9 8 8 7 7 6 6 6 7 7 8 9 9 10 10 10 10 9 9 8 8
3 3 3 2 2 2 1 1 2 2 2 2 3 3 3 3 3 3 4 4 4 4 4 3 2 1 2 2 2 3 3 3 3 3 3 3 3 4 4 5 5 5 5 5 5 5 5 5 5 5 5 6 6 5 5 5 4 4 3 3 3 4 4 4 4 4 4 4 4 5 5 6 7 7 8 8 8 8 9 9 9 9 8 8 7 7 6 6 6 6 7 8 8 9 10 10 10 10 9 9 9 8 8
3 3 2 2 2 2 2 2 2 2 2 2 2 2 1 1 0 0 1 1 1 1 1 0 -0 -1 -1 -1 0 1 2 2 2 3 3 3 4 4 4 4 4 4 4 5 5 5 5 5 6 6 6 6 6 5 5 5 5 4 4 4 4 4 4 4 3 3 3 4 5 5 6 7 7 7 7 8 8 8 9 9 9 9 8 7 7 6 6 6 6 7 7 8 9 9 10 10 10 9 9 9 8 8 8
3 3 2 2 2 2 2 2 2 2 2 2 0 -1 -2 -2 -3 -3 -3 -3 -3 -3 -3 -3 -3 -3 -3 -2 -1 -0 1 1 2 3 3 4 4 4 4 3 3 3 4 4 5 5 6 6 6 6 6 6 6 6 6 6 5 5 4 4 4 4 4 3 3 3 4 4 5 6 7 7 7 7 7 7 8 9 9 9 9 8 7 7 6 6 6 6 6 7 8 8 9 9 10 10 10 9 9 9 8 8 8
3 3 3 2 2 2 2 2 2 2 1 0 -2 -3 -3 -3 -2 -2 -2 -2 -3 -4 -4 -4 -4 -3 -2 -1 -0 0 1 1 2 2 3 3 3 3 3 3 4 4 5 5 5 6 6 6 7 7 7 6 6 6 6 5 5 5 5 4 4 4 3 3 3 4 4 5 5 6 7 7 7 7 7 8 8 9 9 9 9 8 7 6 6 5 5 6 6 7 8 9 9 9 10 9 9 9 9 8 8 8 8
3 3 3 3 3 3 3 2 2 1 0 -1 -3 -3 -2 -0 1 2 3 3 3 3 2 1 1 1 1 2 1 1 1 1 1 1 1 2 3 3 3 3 4 5 6 6 5 5 5 6 6 6 6 6 6 6 5 5 5 5 5 4 4 4 3 3 3 4 4 5 6 6 7 7 7 7 7 8 9 10 10 9 8 7 6 6 5 5 5 6 7 8 9 9 9 9 9 9 9 9 9 8 8 8 8
3 3 3 3 3 3 3 2 2 1 -1 -2 -2 -1 0 2 4 6 7 8 9 9 10 9 8 7 5 4 3 2 2 1 1 1 2 2 3 4 5 5 6 6 6 6 5 5 5 6 6 6 6 6 5 5 5 4 4 4 4 4 3 3 3 3 3 4 4 5 6 6 7 7 7 7 8 9 10 10 10 9 8 7 6 5 5 5 5 6 7 8 9 9 9 9 9 9 9 9 9 9 8 8 8
4 3 3 3 3 3 3 2 1 0 -1 -1 -0 1 2 4 6 7 8 9 10 10 10 11 10 9 7 6 5 4 3 3 3 4 5 5 5 5 5 7 6 5 5 5 5 5 5 6 6 6 6 5 5 5 5 4 4 4 4 3 3 3 3 4 4 4 5 5 6 7 7 7 8 8 9 10 10 11 10 9 8 7 6 5 5 5 6 7 8 9 9 10 9 9 9 9 9 9 9 9 9 9 9
4 3 3 3 3 2 2 1 1 0 0 0 1 2 3 4 6 7 8 8 8 8 8 8 8 8 7 6 5 4 4 5 5 6 7 8 8 7 5 4 4 5 5 5 6 7 7 7 7 6 6 5 5 5 5 5 4 4 4 3 3 3 4 4 5 5 5 6 7 7 7 8 8 9 9 10 11 10 10 8 7 6 5 5 5 5 6 7 8 9 10 10 10 9 9 9 9 9 9 9 9 9 9
3 3 2 2 2 2 1 1 1 1 1 1 2 3 3 4 5 6 7 6 6 6 6 5 5 5 7 6 5 5 5 5 7 8 8 7 8 8 6 4 4 5 5 5 6 7 8 8 7 7 6 5 5 5 5 5 4 4 3 3 3 4 4 5 5 6 6 7 8 8 8 8 9 9 10 10 11 10 9 7 6 5 4 5 5 6 7 8 9 9 10 10 10 9 9 9 9 9 9 9 10 10 9
2 2 2 1 1 1 1 1 1 1 1 2 3 4 4 4 4 4 5 4 4 3 4 4 3 3 4 5 6 6 7 7 7 8 9 7 6 6 7 7 7 5 4 4 5 6 9 7 7 6 6 5 4 4 4 4 4 4 4 4 4 5 5 5 5 6 7 8 9 9 9 9 10 10 10 11 10 9 8 6 5 4 4 4 5 6 7 8 9 10 10 10 9 9 9 9 9 9 9 10 10 10 9
2 2 2 2 1 1 1 2 2 3 3 3 3 4 4 4 3 3 2 2 2 2 2 2 2 3 3 4 5 6 6 7 7 8 9 8 7 6 6 8 7 5 5 6 5 6 8 8 6 5 5 5 4 4 4 4 4 4 4 5 6 6 6 6 5 6 7 8 9 9 9 10 11 11 11 11 10 8 7 5 5 4 4 5 5 6 7 8 9 10 10 10 9 9 9 9 9 9 10 10 10 10 9
3 3 3 3 2 3 3 3 3 4 4 4 4 4 3 3 2 2 1 1 1 1 2 2 3 3 3 4 5 5 6 7 7 7 8 9 9 8 6 5 5 6 8 11 11 9 5 6 5 4 4 4 4 4 4 4 4 4 6 7 8 8 7 6 5 6 7 8 9 9 10 10 11 11 11 10 9 8 6 5 5 4 5 5 6 7 7 8 9 10 10 10 10 9 9 9 9 10 10 10 10 9 9
3 3 3 3 3 4 4 4 4 4 4 4 3 3 3 2 2 1 1 1 2 3 3 4 4 4 4 4 5 5 6 6 7 8 7 8 9 10 8 6 6 6 7 10 11 9 6 4 4 5 5 4 4 5 4 4 5 6 7 8 8 8 7 6 6 6 7 8 9 10 11 11 11 11 10 9 7 7 6 5 5 5 5 6 6 7 8 9 10 11 11 10 10 10 10 10 10 10 10 10 10 9 9
4 4 4 4 5 5 6 6 5 4 4 3 3 2 2 2 2 2 2 3 4 5 6 6 6 6 6 6 6 6 6 6 7 8 8 7 7 8 9 9 8 7 7 5 5 5 6 5 5 5 4 5 6 6 4 5 7 8 8 8 7 7 6 6 6 7 8 9 10 10 11 11 11 10 8 7 6 5 5 5 5 5 6 6 7 7 8 10 11 11 11 11 11 10 10 10 10 10 10 10 9 9 9
5 5 5 5 6 6 7 6 6 5 4 4 3 3 2 3 3 4 4 5 6 7 7 8 8 8 8 8 8 7 7 6 6 6 8 8 7 7 8 8 9 9 10 7 6 5 3 6 8 7 3 5 8 9 8 9 9 9 8 7 6 5 5 6 7 8 9 10 10 10 11 11 10 8 7 6 5 5 5 5 5 6 6 6 7 8 9 10 11 12 12 11 11 10 10 10 10 10 10 9 9 9 9
5 5 5 5 6 6 7 6 6 5 5 4 4 4 4 4 5 5 6 6 7 8 8 9 9 8 8 8 8 8 7 7 6 6 6 7 8 8 7 7 7 8 9 9 9 8 5 6 7 7 6 7 9 11 14 13 11 9 7 5 5 4 5 6 7 8 9 10 10 10 10 9 8 7 6 5 5 5 5 5 6 6 6 6 7 8 10 11 12 12 12 11 11 11 10 10 10 10 9 9 9 9 8
5 5 5 6 6 6 6 6 6 6 6 5 6 6 6 6 6 7 8 8 9 9 9 9 9 8 8 7 7 6 6 7 7 7 7 7 7 8 8 8 8 8 8 8 9 10 11 10 9 8 10 10 10 12 16 15 13 9 6 5 5 5 5 6 7 8 8 9 9 9 9 8 7 6 6 5 5 5 6 6 6 6 6 6 7 8 10 12 12 13 12 12 11 11 10 10 10 9 9 9 8 8 8
6 6 7 7 7 6 6 6 6 6 6 6 7 7 7 8 8 9 10 11 11 12 12 12 10 9 8 7 7 6 7 8 8 9 9 9 8 8 9 9 9 9 10 10 11 11 11 12 12 12 12 12 12 13 14 13 12 10 8 7 6 5 6 6 7 7 8 8 9 9 8 7 7 6 6 5 6 6 6 6 6 6 6 6 7 9 11 12 13 13 12 12 11 11 10 10 10 9 9 9 8 8 9
Height
5910 5910 5910 5910 5910 5910 5910 5910 5910 5910 5910 5910 5910 5910 5910 5910 5910 5910 5910 5909 5909 5909 5909 5909 5909 5908 5908 5908 5908 5907 5907 5907 5906 5906 5906 5905 5905 5905 5905 5904 5904 5903 5903 5902 5902 5901 5901 5900 5900 5900 5899 5899 5898 5898 5897 5897 5897 5896 5895 5895 5894 5894 5893 5893 5892 5892 5891 5890 5890 5889 5888 5888 5887 5886 5885 5885 5884 5883 5883 5882 5881 5880 5880 5879 5878 5877 5876 5875 5875 5874 5873 5872 5871 5870 5869 5868 5867 5866 5865 5865 5864 5863 5862
5910 5910 5910 5910 5910 5910 5910 5910 5910 5910 5910 5910 5910 5910 5910 5910 5909 5909 5909 5909 5909 5909 5909 5908 5908 5908 5908 5907 5907 5907 5906 5906 5906 5905 5905 5905 5905 5904 5904 5904 5903 5903 5902 5902 5901 5901 5900 5900 5900 5899 5899 5898 5898 5897 5897 5896 5896 5895 5895 5894 5894 5893 5893 5892 5892 5891 5891 5890 5889 5889 5888 5887 5886 5886 5885 5884 5884 5883 5882 5881 5880 5880 5879 5878 5877 5876 5876 5875 5874 5873 5872 5871 5870 5869 5868 5867 5867 5866 5865 5864 5863 5862 5861
5910 5910 5910 5910 5910 5910 5910 5910 5910 5910 5909 5909 5909 5909 5909 5909 5909 5909 5909 5909 5908 5908 5908 5908 5907 5907 5907 5907 5906 5906 5906 5905 5905 5905 5905 5904 5904 5904 5903 5903 5902 5902 5902 5901 5901 5900 5900 5900 5899 5899 5899 5898 5898 5897 5897 5896 5895 5895 5895 5894 5893 5893 5892 5892 5891 5891 5890 5890 5889 5888 5888 5887 5886 5885 5885 5884 5883 5882 5881 5880 5880 5879 5878 5877 5877 5876 5875 5874 5873 5872 5871 5870 5870 5869 5868 5867 5866 5865 5864 5863 5862 5861 5860
5909 5909 5909 5909 5909 5909 5909 5909 5909 5909 5909 5909 5909 5909 5909 5909 5908 5908 5908 5908 5908 5908 5907 5907 5907 5907 5906 5906 5906 5905 5905 5905 5905 5904 5904 5904 5903 5903 5903 5902 5902 5901 5901 5901 5900 5900 5900 5899 5899 5899 5898 5898 5897 5897 5896 5896 5895 5895 5894 5894 5893 5892 5892 5891 5891 5890 5890 5889 5888 5888 5887 5886 5885 5885 5884 5883 5882 5882 5881 5880 5879 5878 5877 5877 5876 5875 5874 5873 5872 5871 5871 5870 5869 5868 5867 5866 5865 5864 5863 5862 5861 5860 5860
5909 5909 5909 5909 5909 5909 5909 5909 5909 5909 5909 5909 5908 5908 5908 5908 5908 5908 5907 5907 5907 5907 5907 5906 5906 5906 5906 5905 5905 5905 5905 5904 5904 5904 5903 5903 5903 5902 5902 5902 5901 5901 5900 5900 5900 5899 5899 5899 5899 5898 5898 5897 5897 5896 5896 5895 5895 5894 5894 5893 5893 5892 5891 5891 5890 5890 5889 5888 5888 5887 5886 5886 5885 5884 5883 5883 5882 5881 5880 5879 5879 5878 5877 5876 5875 5874 5873 5872 5872 5871 5870 5869 5868 5867 5866 5865 5864 5863 5862 5861 5860 5860 5859
5908 5908 5908 5908 5908 5908 5908 5908 5908 5908 5908 5908 5908 5908 5908 5907 5907 5907 5907 5907 5906 5906 5906 5906 5905 5905 5905 5905 5905 5904 5904 5904 5903 5903 5903 5902 5902 5902 5901 5901 5901 5900 5900 5900 5899 5899 5899 5898 5898 5898 5897 5897 5896 5896 5895 5895 5895 5894 5893 5893 5892 5891 5891 5890 5890 5889 5888 5888 5887 5886 5885 5885 5884 5883 5883 5882 5881 5880 5879 5879 5878 5877 5876 5875 5874 5873 5872 5871 5871 5870 5869 5868 5867 5866 5865 5865 5864 5863 5861 5860 5860 5859 5858
5908 5908 5908 5908 5908 5908 5908 5908 5908 5907 5907 5907 5907 5907 5907 5907 5907 5906 5906 5906 5906 5906 5905 5905 5905 5905 5905 5904 5904 5904 5903 5903 5903 5902 5902 5902 5901 5901 5901 5900 5900 5900 5900 5899 5899 5898 5898 5898 5897 5897 5896 5896 5896 5895 5895 5894 5894 5893 5893 5892 5891 5891 5890 5890 5889 5888 5888 5887 5886 5885 5885 5884 5883 5883 5882 5881 5880 5880 5879 5878 5877 5876 5875 5874 5873 5873 5872 5871 5870 5869 5868 5867 5866 5865 5865 5864 5863 5862 5861 5860 5859 5858 5857
5907 5907 5907 5907 5907 5907 5907 5907 5907 5907 5907 5907 5907 5906 5906 5906 5906 5906 5906 5905 5905 5905 5905 5905 5905 5904 5904 5904 5904 5903 5903 5903 5902 5902 5901 5901 5901 5900 5900 5900 5900 5899 5899 5899 5898 5898 5897 5897 5897 5896 5896 5895 5895 5895 5894 5894 5893 5893 5892 5891 5891 5890 5890 5889 5888 5887 5887 5886 5885 5885 5884 5883 5882 5882 5881 5880 5879 5879 5878 5877 5876 5875 5875 5874 5873 5872 5871 5870 5869 5868 5867 5866 5865 5864 5863 5862 5861 5860 5860 5859 5858 5857 5856
5907 5907 5907 5907 5907 5907 5906 5906 5906 5906 5906 5906 5906 5906 5906 5906 5905 5905 5905 5905 5905 5905 5905 5904 5904 5904 5903 5903 5903 5903 5902 5902 5902 5901 5901 5900 5900 5900 5900 5899 5899 5899 5898 5898 5897 5897 5897 5896 5896 5895 5895 5895 5894 5894 5894 5893 5892 5892 5891 5890 5890 5889 5889 5888 5887 5886 5886 5885 5884 5884 5883 5882 5881 5880 5880 5879 5878 5878 5877 5876 5875 5874 5874 5873 5872 5871 5870 5869 5868 5867 5866 5865 5864 5863 5862 5861 5860 5860 5859 5858 5857 5856 5855
5906 5906 5906 5906 5906 5906 5906 5906 5906 5906 5906 5906 5906 5905 5905 5905 5905 5905 5905 5905 5904 5904 5904 5904 5903 5903 5903 5903 5902 5902 5902 5901 5901 5900 5900 5900 5900 5899 5899 5898 5898 5898 5897 5897 5897 5896 5896 5895 5895 5895 5894 5894 5893 5893 5893 5892 5891 5891 5890 5890 5889 5888 5888 5887 5886 5885 5885 5884 5883 5883 5882 5881 5880 5880 5879 5878 5877 5876 5876 5875 5874 5873 5872 5872 5871 5870 5869 5868 5867 5866 5865 5864 5863 5862 5861 5860 5860 5859 5858 5857 5856 5855 5854
5905 5905 5906 5906 5905 5905 5905 5905 5905 5905 5905 5905 5905 5905 5905 5905 5905 5904 5904 5904 5904 5904 5903 5903 5903 5902 5902 5902 5901 5901 5901 5900 5900 5900 5900 5899 5899 5898 5898 5897 5897 5897 5896 5896 5896 5895 5895 5895 5894 5894 5893 5893 5892 5892 5891 5891 5890 5890 5889 5889 5888 5887 5887 5886 5885 5885 5884 5883 5882 5881 5881 5880 5879 5879 5878 5877 5876 5875 5875 5874 5873 5872 5871 5870 5870 5869 5868 5867 5866 5865 5864 5863 5862 5861 5860 5860 5859 5857 5856 5855 5855 5854 5853
5905 5905 5905 5905 5905 5905 5905 5905 5905 5905 5905 5905 5905 5905 5904 5904 5904 5904 5904 5903 5903 5903 5903 5902 5902 5902 5901 5901 5901 5900 5900 5900 5900 5899 5899 5898 5898 5897 5897 5896 5896 5896 5895 5895 5895 5895 5894 5894 5893 5893 5892 5892 5891 5891 5890 5890 5889 5889 5888 5888 5887 5886 5886 5885 5884 5884 5883 5882 5881 5880 5880 5879 5878 5878 5877 5876 5875 5874 5874 5873 5872 5871 5870 5869 5868 5868 5867 5866 5865 5864 5863 5862 5861 5860 5859 5858 5857 5856 5855 5855 5854 5853 5852
5904 5905 5905 5905 5905 5905 5904 5904 5904 5904 5904 5904 5904 5904 5904 5904 5903 5903 5903 5903 5903 5902 5902 5902 5901 5901 5901 5900 5900 5900 5899 5899 5899 5898 5898 5897 5897 5896 5896 5895 5895 5895 5894 5894 5894 5893 5893 5893 5892 5891 5891 5890 5890 5890 5889 5889 5888 5887 5887 5886 5886 5885 5885 5884 5883 5883 5882 5881 5880 5880 5879 5878 5877 5876 5876 5875 5874 5873 5872 5871 5871 5870 5869 5868 5867 5866 5865 5865 5864 5863 5862 5861 5860 5859 5858 5857 5856 5855 5854 5853 5852 5851 5850
5904 5904 5904 5904 5904 5904 5904 5904 5904 5904 5903 5903 5903 5903 5903 5903 5903 5903 5902 5902 5902 5901 5901 5901 5900 5900 5900 5900 5899 5899 5899 5898 5898 5897 5897 5896 5896 5895 5895 5895 5894 5894 5893 5893 5892 5892 5892 5891 5891 5890 5890 5890 5889 5888 5888 5887 5887 5886 5886 5885 5885 5884 5884 5883 5882 5882 5881 5880 5880 5879 5878 5877 5876 5875 5875 5874 5873 5872 5871 5870 5870 5869 5868 5867 5866 5865 5864 5864 5863 5862 5861 5860 5859 5858 5857 5856 5855 5854 5853 5852 5851 5850 5849
5903 5903 5903 5903 5903 5903 5903 5903 5903 5903 5903 5903 5903 5902 5902 5902 5902 5902 5902 5901 5901 5901 5900 5900 5900 5900 5899 5899 5898 5898 5898 5897 5897 5896 5896 5895 5895 5895 5894 5894 5893 5893 5892 5892 5891 5891 5890 5890 5890 5890 5889 5889 5888 5887 5887 5886 5886 5885 5885 5884 5883 5883 5882 5882 5881 5880 5880 5879 5878 5878 5877 5876 5875 5875 5874 5873 5872 5871 5870 5869 5868 5867 5867 5866 5865 5864 5863 5862 5861 5860 5860 5859 5858 5857 5855 5855 5854 5853 5852 5851 5850 5849 5848
5902 5902 5902 5902 5902 5902 5902 5902 5902 5902 5902 5902 5902 5902 5902 5901 5901 5901 5901 5900 5900 5900 5900 5899 5899 5899 5898 5898 5897 5897 5897 5896 5896 5895 5895 5895 5894 5894 5893 5893 5892 5892 5891 5891 5890 5890 5889 5889 5889 5889 5888 5888 5887 5886 5886 5885 5885 5884 5884 5883 5882 5881 5881 5880 5880 5879 5878 5878 5877 5876 5876 5875 5874 5874 5873 5872 5871 5870 5869 5868 5867 5866 5865 5865 5864 5863 5862 5861 5860 5859 5858 5857 5856 5855 5855 5853 5852 5851 5850 5850 5849 5848 5847
5901 5901 5901 5901 5901 5901 5901 5901 5901 5901 5901 5901 5901 5901 5901 5900 5900 5900 5900 5900 5899 5899 5899 5898 5898 5898 5897 5897 5897 5896 5896 5895 5895 5895 5894 5894 5893 5893 5892 5892 5891 5891 5891 5890 5890 5889 5888 5888 5888 5887 5887 5887 5886 5885 5885 5884 5884 5883 5883 5882 5881 5880 5880 5879 5878 5878 5877 5876 5875 5875 5874 5874 5873 5872 5871 5871 5870 5869 5868 5867 5866 5865 5864 5863 5862 5861 5860 5860 5859 5858 5857 5856 5855 5854 5853 5852 5851 5850 5849 5848 5847 5846 5845
5900 5900 5900 5900 5900 5900 5900 5900 5900 5900 5900 5900 5900 5900 5900 5900 5900 5899 5899 5899 5899 5898 5898 5898 5897 5897 5896 5896 5896 5895 5895 5895 5895 5894 5894 5893 5893 5892 5892 5891 5891 5890 5890 5890 5889 5888 5888 5887 5886 5886 5886 5886 5885 5885 5884 5884 5883 5882 5882 5881 5880 5880 5879 5878 5877 5876 5875 5875 5874 5873 5873 5872 5871 5871 5870 5870 5869 5868 5867 5866 5865 5864 5863 5862 5861 5860 5859 5858 5857 5856 5855 5855 5854 5853 5852 5851 5850 5849 5848 5847 5846 5845 5844
5899 5899 5899 5900 5900 5900 5900 5900 5900 5900 5900 5900 5899 5899 5899 5899 5899 5899 5898 5898 5898 5897 5897 5897 5896 5896 5896 5895 5895 5895 5895 5894 5894 5893 5893 5893 5892 5891 5891 5890 5890 5890 5889 5889 5888 5888 5887 5886 5885 5885 5885 5885 5884 5884 5883 5883 5882 5881 5881 5880 5880 5879 5878 5877 5876 5875 5875 5874 5873 5872 5871 5870 5870 5869 5868 5868 5867 5866 5865 5865 5864 5863 5862 5861 5860 5859 5858 5857 5856 5855 5854 5853 5852 5851 5850 5850 5849 5847 5846 5845 5845 5843 5842
5898 5898 5898 5899 5899 5899 5899 5899 5899 5899 5899 5899 5899 5898 5898 5898 5898 5898 5898 5897 5897 5897 5896 5896 5896 5895 5895 5895 5895 5894 5894 5894 5893 5893 5893 5892 5892 5891 5890 5890 5890 5889 5889 5888 5888 5887 5886 5886 5885 5884 5884 5883 5883 5883 5882 5882 5881 5880 5880 5879 5879 5878 5877 5876 5875 5875 5874 5873 5872 5871 5870 5869 5868 5867 5867 5866 5865 5865 5864 5863 5862 5861 5860 5860 5859 5858 5857 5856 5855 5854 5853 5852 5851 5850 5849 5848 5847 5846 5845 5844 5843 5842 5841
5897 5897 5898 5898 5898 5898 5898 5898 5898 5898 5898 5898 5898 5898 5897 5897 5897 5897 5897 5896 5896 5896 5896 5895 5895 5895 5895 5894 5894 5894 5893 5893 5893 5893 5892 5892 5891 5890 5890 5890 5889 5888 5888 5887 5887 5887 5886 5885 5884 5884 5883 5882 5882 5881 5881 5880 5880 5880 5879 5878 5878 5877 5876 5875 5875 5874 5873 5872 5871 5870 5869 5868 5867 5866 5865 5864 5864 5863 5862 5862 5861 5860 5859 5858 5857 5856 5855 5855 5853 5852 5851 5850 5849 5848 5847 5846 5845 5845 5844 5843 5842 5840 5840
5897 5897 5897 5897 5897 5897 5897 5897 5897 5897 5897 5897 5897 5897 5896 5896 5896 5896 5896 5895 5895 5895 5895 5895 5894 5894 5894 5893 5893 5893 5892 5892 5892 5892 5891 5891 5890 5890 5890 5889 5888 5888 5887 5887 5886 5886 5885 5885 5884 5883 5882 5881 5881 5880 5880 5880 5879 5879 5878 5877 5877 5876 5875 5875 5874 5873 5872 5871 5870 5869 5868 5867 5866 5865 5864 5863 5862 5861 5861 5860 5859 5859 5858 5857 5856 5855 5854 5853 5852 5851 5850 5849 5848 5847 5846 5845 5844 5843 5842 5841 5840 5839 5838
5896 5896 5896 5896 5896 5896 5896 5896 5896 5896 5896 5896 5896 5896 5895 5895 5895 5895 5895 5894 5894 5894 5894 5894 5893 5893 5893 5892 5892 5891 5891 5891 5890 5890 5890 5890 5889 5889 5889 5888 5887 5887 5886 5886 5885 5885 5885 5884 5883 5882 5881 5880 5880 5880 5879 5879 5878 5878 5877 5876 5876 5875 5874 5873 5873 5872 5871 5870 5869 5868 5867 5866 5865 5865 5863 5862 5861 5860 5859 5858 5858 5857 5856 5855 5854 5854 5853 5852 5851 5850 5849 5848 5846 5845 5844 5843 5842 5841 5840 5839 5838 5837 5836
5895 5895 5895 5895 5895 5895 5895 5895 5895 5895 5895 5895 5895 5895 5895 5894 5894 5894 5894 5893 5893 5893 5893 5892 5892 5892 5892 5891 5891 5891 5890 5890 5890 5889 5889 5888 5888 5888 5887 5887 5886 5886 5885 5885 5884 5884 5884 5883 5882 5881 5880 5880 5879 5879 5878 5878 5877 5876 5876 5875 5875 5874 5873 5872 5871 5870 5870 5869 5868 5867 5866 5865 5864 5863 5862 5861 5860 5859 5858 5857 5856 5855 5855 5854 5853 5852 5851 5850 5849 5848 5847 5846 5845 5844 5843 5842 5841 5840 5839 5838 5837 5836 5835
5894 5894 5894 5894 5894 5894 5894 5894 5894 5894 5894 5894 5894 5894 5894 5893 5893 5893 5893 5892 5892 5892 5891 5891 5891 5891 5891 5890 5890 5890 5890 5889 5889 5888 5888 5887 5887 5886 5886 5885 5885 5885 5884 5884 5883 5883 5882 5882 5881 5881 5880 5879 5878 5878 5877 5877 5876 5875 5875 5874 5874 5873 5872 5871 5870 5870 5869 5868 5867 5866 5865 5864 5863 5862 5861 5860 5859 5858 5857 5856 5855 5854 5853 5852 5851 5850 5849 5849 5848 5847 5846 5845 5844 5842 5841 5840 5839 5838 5837 5836 5835 5834 5833
5893 5893 5893 5893 5893 5893 5893 5893 5893 5893 5893 5893 5893 5892 5892 5892 5892 5892 5892 5891 5891 5891 5890 5890 5890 5890 5890 5889 5889 5889 5889 5888 5888 5887 5887 5886 5886 5885 5885 5885 5884 5884 5883 5883 5882 5882 5881 5881 5880 5880 5879 5878 5877 5877 5876 5875 5875 5874 5874 5873 5872 5872 5871 5870 5869 5868 5868 5867 5866 5865 5864 5863 5862 5861 5860 5859 5858 5857 5856 5855 5854 5853 5852 5851 5850 5849 5848 5847 5846 5845 5844 5843 5842 5841 5840 5839 5838 5836 5835 5834 5833 5832 5831
5892 5892 5892 5892 5892 5892 5892 5892 5892 5892 5892 5892 5891 5891 5891 5891 5891 5891 5890 5890 5890 5890 5889 5889 5889 5889 5888 5888 5888 5888 5887 5887 5887 5886 5886 5885 5885 5885 5884 5884 5883 5883 5882 5881 5881 5880 5880 5880 5879 5879 5878 5877 5876 5876 5875 5874 5874 5873 5872 5872 5871 5870 5870 5869 5868 5867 5866 5865 5865 5864 5863 5862 5861 5860 5859 5858 5857 5856 5855 5854 5853 5851 5850 5850 5848 5847 5846 5845 5844 5843 5842 5841 5840 5840 5838 5837 5836 5835 5834 5833 5831 5830 5830
5891 5891 5891 5891 5891 5891 5891 5891 5891 5891 5891 5891 5891 5890 5890 5890 5890 5890 5890 5889 5889 5889 5889 5888 5888 5888 5887 5887 5887 5886 5886 5886 5885 5885 5885 5885 5884 5884 5883 5883 5882 5881 5881 5880 5880 5879 5879 5878 5878 5877 5877 5876 5875 5875 5874 5873 5872 5872 5871 5870 5870 5869 5868 5867 5866 5866 5865 5864 5863 5863 5862 5861 5860 5859 5858 5857 5856 5855 5854 5853 5852 5850 5849 5848 5847 5846 5845 5843 5842 5841 5840 5839 5839 5838 5836 5835 5835 5833 5832 5831 5830 5829 5828
5890 5890 5890 5890 5890 5890 5890 5890 5890 5890 5890 5890 5890 5890 5889 5889 5889 5889 5889 5889 5888 5888 5888 5888 5887 5887 5887 5886 5886 5885 5885 5885 5885 5884 5884 5883 5883 5882 5882 5881 5881 5880 5880 5879 5879 5878 5878 5877 5876 5876 5876 5875 5874 5874 5873 5872 5871 5870 5870 5869 5868 5867 5867 5866 5865 5864 5864 5863 5862 5861 5860 5860 5859 5858 5857 5856 5855 5854 5853 5851 5850 5849 5848 5847 5845 5844 5843 5842 5840 5839 5838 5837 5836 5835 5835 5833 5832 5831 5830 5830 5828 5827 5826
5889 5889 5889 5889 5889 5889 5889 5889 5889 5889 5889 5889 5889 5889 5889 5888 5888 5888 5888 5888 5888 5887 5887 5887 5887 5886 5886 5885 5885 5885 5884 5884 5884 5883 5883 5882 5882 5881 5881 5880 5880 5879 5879 5878 5878 5877 5876 5876 5875 5875 5875 5874 5873 5873 5872 5871 5870 5869 5868 5868 5867 5866 5865 5865 5864 5863 5862 5861 5860 5860 5859 5858 5857 5856 5855 5854 5853 5852 5851 5850 5849 5848 5847 5846 5844 5843 5842 5840 5839 5838 5836 5835 5834 5833 5832 5831 5830 5829 5828 5827 5826 5825 5824
5889 5889 5888 5888 5888 5888 5888 5888 5888 5888 5888 5888 5888 5888 5888 5888 5887 5887 5887 5887 5886 5886 5886 5886 5886 5885 5885 5885 5884 5884 5883 5883 5883 5882 5882 5881 5880 5880 5880 5879 5879 5878 5877 5877 5876 5876 5875 5875 5874 5874 5873 5873 5872 5872 5871 5870 5869 5868 5867 5866 5866 5865 5864 5863 5862 5862 5861 5860 5859 5858 5857 5856 5855 5855 5854 5853 5852 5850 5850 5849 5847 5846 5845 5844 5843 5842 5840 5839 5838 5836 5835 5833 5832 5831 5830 5829 5828 5827 5826 5825 5824 5823 5822
5888 5888 5888 5887 5887 5887 5887 5887 5887 5887 5887 5887 5887 5887 5887 5887 5886 5886 5886 5886 5885 5885 5885 5885 5885 5885 5884 5884 5883 5883 5882 5882 5882 5881 5881 5880 5880 5879 5878 5878 5877 5876 5876 5875 5875 5875 5874 5873 5873 5872 5872 5871 5871 5870 5870 5869 5868 5867 5866 5865 5865 5864 5863 5862 5861 5860 5859 5859 5858 5856 5855 5855 5854 5853 5852 5851 5850 5849 5848 5847 5846 5845 5844 5843 5841 5840 5839 5838 5836 5835 5833 5832 5830 5829 5828 5827 5826 5825 5824 5823 5822 5821 5820
5886 5886 5886 5886 5886 5886 5886 5886 5886 5885 5885 5885 5885 5885 5885 5885 5885 5885 5885 5885 5885 5884 5884 5884 5884 5884 5883 5883 5882 5882 5881 5881 5880 5880 5880 5879 5879 5878 5877 5876 5876 5875 5875 5874 5874 5873 5872 5872 5871 5870 5870 5870 5869 5869 5868 5868 5867 5866 5865 5864 5863 5862 5861 5860 5860 5859 5858 5857 5856 5855 5854 5853 5852 5851 5850 5849 5848 5847 5846 5845 5844 5843 5842 5841 5840 5839 5837 5836 5835 5834 5832 5830 5829 5828 5826 5825 5824 5823 5821 5820 5820 5819 5818
5885 5885 5885 5885 5885 5885 5885 5885 5885 5884 5884 5884 5884 5885 5885 5885 5885 5885 5884 5884 5884 5883 5883 5883 5883 5882 5882 5882 5881 5881 5880 5880 5880 5879 5879 5878 5877 5877 5876 5875 5875 5874 5873 5873 5872 5871 5871 5870 5870 5869 5869 5868 5867 5867 5867 5866 5865 5865 5864 5863 5862 5861 5860 5859 5858 5857 5856 5855 5855 5853 5852 5851 5850 5849 5848 5847 5846 5845 5844 5843 5842 5841 5840 5839 5838 5836 5835 5835 5833 5832 5831 5829 5828 5826 5825 5824 5822 5821 5820 5819 5817 5816 5816
5884 5884 5884 5884 5884 5884 5884 5884 5883 5883 5883 5883 5883 5883 5883 5883 5883 5883 5883 5883 5882 5882 5882 5881 5881 5881 5881 5880 5880 5880 5879 5879 5878 5878 5877 5877 5876 5875 5875 5874 5874 5873 5872 5871 5870 5870 5870 5869 5868 5868 5867 5866 5866 5865 5865 5864 5864 5863 5862 5861 5860 5860 5859 5858 5857 5856 5855 5854 5853 5852 5851 5850 5849 5848 5846 5845 5844 5843 5842 5841 5840 5839 5838 5837 5836 5835 5833 5832 5831 5830 5829 5828 5826 5825 5824 5822 5821 5820 5818 5817 5815 5815 5814
5883 5883 5883 5883 5883 5883 5883 5882 5882 5882 5882 5882 5882 5882 5882 5882 5882 5882 5882 5881 5881 5881 5880 5880 5880 5880 5880 5879 5879 5878 5878 5877 5877 5876 5876 5875 5875 5874 5874 5873 5872 5872 5871 5870 5869 5868 5868 5867 5867 5866 5865 5865 5864 5864 5863 5862 5862 5861 5861 5860 5859 5858 5857 5856 5855 5854 5853 5852 5851 5850 5849 5848 5847 5846 5845 5844 5842 5841 5840 5839 5838 5837 5836 5835 5834 5833 5831 5830 5830 5828 5827 5826 5825 5824 5822 5821 5820 5819 5817 5816 5814 5813 5811
5881 5881 5881 5881 5881 5881 5881 5881 5881 5881 5881 5881 5881 5881 5881 5881 5881 5881 5880 5880 5880 5879 5879 5879 5879 5878 5878 5878 5877 5877 5876 5876 5875 5875 5874 5874 5873 5873 5872 5872 5871 5870 5870 5869 5868 5867 5866 5865 5865 5864 5864 5863 5862 5862 5861 5861 5860 5860 5859 5858 5857 5856 5855 5854 5853 5852 5851 5850 5850 5849 5847 5846 5845 5844 5843 5842 5840 5839 5838 5837 5836 5835 5834 5833 5832 5830 5830 5828 5827 5826 5825 5824 5823 5822 5821 5820 5819 5817 5816 5815 5813 5812 5810
5880 5880 5880 5880 5880 5880 5880 5880 5880 5880 5879 5879 5880 5880 5880 5880 5880 5880 5879 5879 5878 5878 5877 5877 5877 5877 5876 5876 5876 5875 5875 5874 5874 5873 5873 5872 5871 5871 5870 5870 5870 5869 5868 5867 5866 5865 5865 5864 5863 5862 5862 5861 5860 5860 5859 5859 5858 5858 5857 5856 5855 5854 5853 5852 5851 5850 5849 5849 5848 5847 5846 5845 5844 5842 5841 5840 5839 5837 5836 5835 5834 5833 5832 5830 5830 5828 5827 5826 5825 5824 5823 5822 5821 5820 5819 5818 5817 5816 5815 5814 5812 5810 5809
5878 5879 5879 5879 5879 5879 5879 5878 5878 5878 5878 5878 5878 5878 5878 5878 5878 5878 5878 5877 5877 5876 5876 5875 5875 5875 5875 5875 5874 5874 5873 5873 5872 5871 5871 5870 5870 5869 5869 5868 5868 5867 5866 5866 5865 5864 5863 5862 5862 5861 5860 5860 5859 5858 5857 5857 5856 5855 5855 5854 5853 5852 5851 5850 5849 5848 5847 5846 5845 5845 5844 5843 5842 5841 5840 5838 5837 5835 5834 5833 5832 5831 5830 5828 5827 5826 5825 5824 5823 5822 5821 5820 5819 5817 5816 5815 5814 5814 5813 5812 5811 5809 5808
5877 5877 5877 5877 5877 5877 5877 5877 5877 5876 5876 5876 5876 5877 5877 5877 5877 5877 5876 5876 5875 5875 5874 5874 5874 5873 5873 5873 5872 5872 5871 5871 5870 5870 5869 5869 5868 5867 5867 5866 5866 5865 5865 5864 5864 5863 5862 5861 5860 5860 5859 5858 5857 5856 5856 5855 5855 5854 5853 5852 5851 5850 5850 5849 5848 5846 5845 5844 5843 5842 5841 5841 5840 5839 5838 5836 5835 5834 5832 5831 5830 5829 5828 5826 5825 5824 5823 5822 5821 5820 5819 5817 5816 5815 5814 5813 5812 5811 5810 5810 5809 5808 5806
5875 5875 5876 5876 5876 5876 5875 5875 5875 5875 5875 5875 5875 5875 5875 5875 5875 5875 5875 5875 5874 5873 5873 5872 5872 5872 5871 5871 5871 5870 5870 5870 5869 5868 5868 5867 5866 5866 5865 5865 5864 5863 5863 5862 5862 5861 5860 5860 5859 5858 5857 5856 5856 5855 5854 5854 5853 5852 5851 5850 5850 5849 5848 5847 5846 5845 5844 5843 5842 5840 5839 5839 5838 5837 5835 5835 5833 5832 5831 5829 5828 5827 5825 5825 5823 5822 5821 5820 5819 5817 5816 5815 5814 5813 5812 5811 5810 5809 5808 5807 5806 5805 5804
5874 5874 5874 5874 5874 5874 5874 5874 5873 5873 5873 5873 5873 5873 5874 5874 5874 5874 5873 5873 5872 5872 5871 5871 5870 5870 5870 5870 5869 5869 5868 5868 5867 5867 5866 5865 5865 5864 5863 5863 5862 5861 5861 5860 5860 5859 5859 5858 5857 5856 5855 5855 5854 5853 5853 5852 5851 5850 5850 5849 5848 5847 5846 5845 5844 5844 5842 5841 5840 5839 5838 5837 5836 5835 5834 5832 5831 5830 5829 5828 5826 5825 5824 5822 5821 5820 5819 5818 5816 5815 5814 5813 5812 5811 5810 5809 5808 5807 5806 5805 5804 5803 5802
5872 5872 5872 5872 5872 5872 5872 5872 5871 5871 5871 5871 5871 5872 5872 5872 5872 5872 5871 5871 5870 5870 5870 5869 5869 5868 5868 5868 5867 5867 5867 5866 5866 5865 5865 5864 5863 5863 5862 5861 5860 5860 5859 5858 5858 5857 5856 5856 5855 5855 5854 5853 5852 5851 5851 5850 5849 5848 5848 5847 5846 5845 5844 5843 5842 5842 5841 5840 5839 5837 5836 5835 5834 5833 5832 5830 5829 5828 5827 5825 5824 5823 5822 5820 5819 5818 5817 5815 5814 5813 5812 5811 5810 5809 5807 5806 5805 5804 5803 5802 5801 5801 5800
5870 5870 5870 5870 5870 5870 5870 5870 5870 5870 5870 5870 5870 5870 5870 5870 5870 5870 5870 5869 5869 5868 5868 5867 5867 5866 5866 5866 5866 5865 5865 5865 5864 5864 5863 5862 5862 5861 5860 5860 5859 5858 5857 5857 5856 5855 5855 5854 5853 5853 5852 5851 5850 5850 5849 5848 5847 5846 5845 5845 5844 5843 5842 5841 5840 5840 5839 5838 5837 5835 5835 5833 5832 5831 5830 5828 5827 5826 5825 5824 5822 5821 5820 5818 5817 5816 5815 5813 5812 5811 5810 5809 5807 5806 5805 5804 5803 5802 5801 5800 5799 5798 5798
5868 5868 5868 5868 5868 5868 5868 5868 5868 5868 5868 5868 5868 5868 5869 5869 5868 5868 5868 5867 5867 5867 5866 5866 5865 5865 5864 5864 5864 5863 5863 5863 5862 5861 5861 5860 5860 5859 5859 5858 5857 5857 5856 5855 5854 5853 5853 5852 5851 5850 5850 5849 5848 5847 5846 5846 5845 5844 5843 5842 5841 5840 5840 5839 5838 5837 5836 5835 5835 5833 5832 5831 5830 5829 5827 5826 5825 5824 5822 5821 5820 5819 5817 5816 5815 5814 5812 5811 5810 5809 5808 5806 5805 5804 5803 5802 5801 5800 5799 5798 5797 5796 5795
5865 5865 5865 5865 5865 5865 5865 5866 5865 5865 5865 5866 5866 5866 5866 5866 5866 5866 5866 5865 5865 5865 5865 5864 5863 5863 5862 5862 5861 5861 5861 5860 5860 5860 5859 5858 5857 5857 5856 5856 5855 5855 5854 5853 5852 5851 5850 5850 5849 5848 5848 5847 5846 5845 5844 5843 5843 5842 5841 5840 5839 5838 5837 5836 5835 5835 5834 5833 5832 5831 5830 5829 5828 5826 5825 5824 5823 5821 5820 5819 5818 5816 5815 5814 5812 5811 5810 5809 5808 5806 5805 5804 5803 5802 5801 5800 5799 5797 5796 5795 5794 5793 5793
5863 5863 5863 5863 5863 5863 5863 5864 5864 5864 5864 5864 5864 5864 5864 5864 5864 5864 5864 5863 5863 5863 5863 5862 5861 5861 5860 5860 5859 5859 5859 5858 5858 5857 5857 5856 5855 5855 5854 5853 5852 5852 5851 5850 5850 5849 5848 5848 5847 5846 5845 5845 5844 5843 5842 5841 5840 5840 5839 5838 5837 5836 5835 5834 5833 5832 5831 5831 5830 5829 5828 5826 5825 5824 5823 5821 5820 5819 5818 5816 5815 5814 5813 5811 5810 5809 5808 5806 5805 5804 5803 5802 5801 5800 5799 5797 5796 5795 5794 5793 5792 5791 5790
5860 5861 5861 5861 5861 5861 5861 5861 5861 5861 5861 5862 5862 5862 5862 5862 5861 5861 5861 5861 5860 5860 5860 5860 5860 5859 5859 5858 5857 5857 5856 5856 5856 5855 5855 5854 5853 5852 5852 5851 5850 5849 5849 5848 5847 5847 5846 5845 5845 5844 5843 5842 5841 5840 5840 5839 5838 5837 5836 5835 5834 5833 5832 5831 5830 5830 5829 5828 5827 5826 5825 5824 5823 5821 5820 5819 5818 5817 5815 5814 5813 5811 5810 5809 5808 5806 5805 5804 5803 5802 5801 5800 5799 5797 5796 5795 5794 5793 5791 5790 5789 5788 5787
5858 5858 5858 5858 5859 5859 5859 5859 5859 5859 5859 5859 5860 5860 5860 5859 5859 5859 5858 5858 5858 5857 5857 5857 5857 5857 5856 5856 5855 5855 5854 5854 5853 5853 5853 5852 5851 5850 5850 5849 5848 5847 5846 5846 5845 5845 5844 5843 5843 5842 5841 5840 5840 5839 5838 5837 5836 5835 5834 5833 5832 5831 5830 5829 5828 5827 5827 5826 5825 5824 5823 5822 5820 5819 5818 5817 5816 5815 5813 5812 5810 5809 5808 5806 5805 5804 5803 5802 5800 5800 5799 5797 5796 5795 5794 5793 5791 5790 5789 5788 5787 5786 5785
5856 5856 5856 5856 5856 5856 5856 5857 5857 5857 5857 5857 5857 5857 5857 5857 5856 5856 5856 5855 5855 5855 5855 5854 5854 5854 5854 5853 5853 5852 5852 5851 5851 5850 5850 5849 5848 5848 5847 5846 5846 5845 5845 5844 5843 5842 5841 5841 5840 5840 5839 5839 5838 5837 5836 5835 5834 5833 5832 5831 5830 5829 5828 5827 5826 5825 5824 5823 5822 5821 5820 5819 5818 5817 5816 5815 5814 5813 5811 5810 5808 5807 5805 5804 5803 5801 5800 5799 5798 5797 5796 5795 5794 5793 5791 5790 5789 5788 5787 5785 5785 5784 5783
5853 5854 5854 5854 5854 5854 5854 5855 5855 5854 5854 5854 5854 5854 5854 5854 5854 5854 5854 5853 5853 5853 5852 5852 5851 5851 5851 5851 5850 5850 5849 5848 5848 5848 5847 5846 5846 5845 5844 5844 5844 5843 5842 5842 5841 5840 5840 5839 5838 5838 5837 5836 5835 5835 5834 5833 5832 5831 5830 5829 5828 5827 5826 5825 5824 5823 5822 5821 5820 5819 5818 5817 5816 5815 5814 5813 5812 5811 5810 5808 5806 5805 5803 5802 5800 5799 5798 5797 5796 5795 5794 5792 5791 5790 5789 5788 5787 5785 5784 5783 5782 5781 5780
5851 5851 5851 5851 5852 5852 5852 5852 5852 5851 5851 5851 5851 5851 5851 5851 5851 5851 5851 5851 5850 5850 5850 5850 5849 5849 5848 5848 5847 5846 5846 5845 5845 5845 5845 5844 5843 5843 5842 5841 5841 5840 5840 5840 5839 5838 5838 5837 5836 5835 5835 5834 5833 5832 5831 5830 5830 5829 5828 5827 5825 5825 5824 5823 5822 5821 5820 5819 5817 5816 5815 5814 5814 5813 5812 5811 5810 5809 5808 5806 5804 5803 5801 5800 5798 5797 5796 5795 5794 5792 5791 5790 5789 5787 5786 5785 5784 5783 5782 5781 5780 5779 5778
5849 5849 5849 5849 5849 5849 5850 5849 5849 5849 5849 5848 5848 5848 5849 5849 5849 5849 5849 5849 5848 5848 5848 5847 5847 5847 5846 5845 5845 5844 5843 5843 5842 5842 5842 5841 5841 5840 5840 5839 5838 5838 5837 5837 5836 5835 5835 5835 5834 5833 5833 5832 5831 5830 5829 5828 5827 5826 5825 5824 5823 5823 5822 5821 5820 5819 5818 5816 5815 5814 5812 5812 5811 5811 5810 5810 5809 5807 5806 5805 5803 5801 5800 5798 5796 5795 5794 5793 5791 5790 5789 5788 5786 5785 5784 5783 5781 5780 5780 5778 5777 5776 5776
5846 5846 5846 5847 5847 5847 5847 5846 5846 5846 5846 5845 5845 5845 5846 5846 5846 5846 5846 5846 5845 5845 5845 5845 5845 5844 5844 5843 5843 5842 5840 5840 5840 5839 5839 5839 5838 5837 5836 5836 5835 5835 5834 5835 5834 5833 5832 5832 5831 5830 5830 5830 5829 5828 5827 5826 5825 5824 5823 5822 5821 5820 5820 5819 5819 5818 5817 5815 5813 5811 5810 5809 5809 5808 5808 5807 5807 5806 5805 5803 5801 5800 5798 5796 5795 5793 5792 5791 5790 5788 5787 5786 5784 5783 5781 5780 5779 5778 5777 5776 5775 5774 5773
5844 5844 5844 5844 5844 5844 5844 5844 5844 5843 5843 5843 5843 5843 5843 5843 5843 5843 5843 5843 5842 5842 5842 5842 5842 5842 5841 5840 5840 5840 5839 5838 5837 5836 5836 5835 5835 5835 5834 5833 5833 5832 5831 5831 5831 5830 5830 5829 5828 5827 5827 5827 5826 5825 5825 5824 5823 5821 5820 5819 5818 5818 5817 5817 5817 5816 5815 5813 5811 5810 5808 5807 5806 5805 5805 5805 5804 5804 5803 5801 5800 5798 5796 5795 5793 5792 5790 5789 5788 5786 5785 5784 5782 5780 5779 5778 5776 5775 5774 5773 5773 5772 5771
5841 5841 5841 5841 5841 5841 5841 5841 5841 5840 5840 5840 5840 5840 5840 5840 5840 5840 5840 5840 5839 5839 5839 5839 5839 5839 5839 5838 5837 5837 5836 5835 5835 5834 5834 5833 5832 5832 5831 5830 5830 5830 5829 5828 5828 5827 5826 5826 5825 5824 5824 5825 5824 5823 5821 5821 5820 5819 5818 5817 5816 5815 5815 5815 5814 5814 5813 5811 5809 5808 5806 5805 5804 5803 5802 5802 5801 5800 5800 5799 5797 5796 5794 5792 5791 5790 5788 5787 5786 5784 5783 5781 5780 5778 5776 5775 5774 5773 5772 5771 5770 5769 5768
5838 5838 5838 5838 5838 5838 5838 5838 5838 5838 5838 5838 5838 5837 5837 5837 5837 5837 5837 5836 5836 5836 5836 5835 5835 5835 5835 5835 5835 5834 5833 5833 5832 5831 5831 5830 5830 5829 5829 5828 5827 5827 5826 5825 5825 5824 5823 5823 5822 5821 5820 5820 5821 5820 5819 5818 5817 5817 5815 5814 5813 5813 5812 5812 5811 5811 5810 5809 5807 5805 5804 5803 5801 5800 5799 5799 5798 5797 5796 5795 5794 5793 5791 5790 5789 5787 5786 5785 5783 5782 5780 5779 5777 5775 5774 5773 5771 5770 5769 5768 5768 5767 5766
5835 5835 5835 5835 5835 5835 5835 5835 5835 5835 5835 5835 5835 5835 5835 5835 5834 5834 5834 5833 5833 5833 5832 5832 5832 5832 5831 5831 5831 5831 5830 5830 5829 5829 5828 5827 5827 5826 5825 5825 5825 5824 5824 5823 5822 5821 5820 5819 5819 5818 5817 5816 5816 5816 5816 5815 5814 5813 5813 5812 5811 5810 5809 5809 5808 5808 5807 5806 5804 5803 5801 5800 5799 5798 5796 5796 5795 5794 5793 5792 5791 5790 5789 5787 5786 5785 5783 5782 5781 5780 5778 5776 5775 5773 5772 5770 5769 5768 5767 5766 5765 5764 5764
5832 5832 5832 5832 5832 5832 5832 5832 5832 5832 5832 5832 5832 5832 5832 5832 5831 5831 5830 5830 5830 5829 5829 5829 5829 5828 5828 5828 5828 5828 5827 5826 5826 5825 5825 5824 5824 5823 5823 5822 5821 5821 5821 5820 5820 5819 5817 5816 5815 5815 5814 5813 5812 5811 5812 5812 5811 5810 5809 5808 5808 5807 5806 5806 5805 5805 5804 5803 5801 5800 5799 5797 5796 5795 5794 5793 5792 5791 5790 5789 5788 5787 5786 5784 5783 5782 5781 5780 5779 5777 5775 5774 5773 5771 5770 5768 5767 5766 5765 5764 5763 5762 5761
5829 5829 5829 5829 5829 5829 5829 5829 5829 5829 5830 5830 5830 5830 5829 5829 5829 5828 5828 5827 5827 5826 5826 5825 5825 5825 5825 5825 5824 5824 5824 5823 5823 5823 5822 5821 5820 5820 5820 5819 5818 5818 5818 5817 5817 5816 5815 5813 5812 5811 5811 5810 5809 5808 5808 5808 5808 5807 5806 5805 5805 5804 5804 5803 5803 5802 5801 5800 5799 5798 5796 5795 5793 5792 5791 5790 5789 5788 5787 5786 5785 5784 5783 5781 5780 5779 5778 5777 5776 5775 5773 5771 5770 5769 5767 5766 5765 5764 5762 5761 5760 5760 5759
5826 5826 5826 5826 5826 5826 5826 5826 5826 5826 5826 5826 5826 5826 5826 5826 5826 5825 5825 5824 5824 5823 5823 5822 5822 5822 5821 5821 5821 5821 5820 5820 5820 5819 5819 5818 5817 5816 5816 5816 5815 5815 5815 5814 5814 5813 5812 5810 5810 5809 5808 5807 5806 5806 5805 5804 5804 5804 5803 5803 5802 5801 5801 5800 5800 5799 5798 5797 5796 5795 5793 5792 5790 5790 5788 5787 5786 5785 5784 5783 5782 5781 5780 5779 5778 5776 5775 5775 5773 5772 5770 5769 5767 5766 5765 5764 5762 5761 5760 5759 5758 5757 5756